Regional Weather Roundup
Issued by NWS Green Bay, WI

Home | Current Version | Previous Version | Text Only | Print | Product List | Glossary On
Versions: 1 2 3 4 5 6 7 8 9 10 11 12 13 14 15 16 17 18 19 20 21 22 23 24 25 26 27 28 29 30 31 32 33 34 35 36 37 38 39 40 41 42 43 44 45 46 47 48 49 50
054
ASUS43 KGRB 221111
RWRGRB

NORTH-CENTRAL AND NORTHEAST WISCONSIN REGIONAL WEATHER ROUNDUP
NATIONAL WEATHER SERVICE GREEN BAY WI
500 AM CST MON JAN 22 2018

WIZ005-009-010>012-018-019-221200-
NORTH CENTRAL WISCONSIN

CITY           SKY/WX    TMP DP  RH WIND       PRES   REMARKS
IRONWOOD       FLURRIES  28  26  92 E10       29.98F
MANITOWISH WTR CLOUDY    29  29 100 NE9G16    29.92F
ARBOR VITAE    CLOUDY    32  30  94 NE9       29.90F
EAGLE RIVER    CLOUDY    30  30  99 NE13      29.92S
LAND O LAKES   CLOUDY    30  30 100 NE6G17    29.96S
RHINELANDER    CLOUDY    32  30  92 NE9G18    29.89F
PHILLIPS       CLOUDY    30  30  99 NE10      29.89F
ANTIGO         CLOUDY    31  31  98 NE15      29.87F FOG
TOMAHAWK       CLOUDY    32  29  88 NE8G16    29.88F
MERRILL        CLOUDY    33  31  92 NE12      29.87F
$$

WIZ013-073-221200-
NORTHEAST WISCONSIN

CITY           SKY/WX    TMP DP  RH WIND       PRES   REMARKS
IRON MOUNTAIN  CLOUDY    31  28  89 NE6       29.94F
MARINETTE      MIX PCPN  33  31  92 NE22G28   29.92F FOG
OCONTO         CLOUDY    33  32  94 NE12G20   29.89F
$$

WIZ017-030-035>037-045-221200-
CENTRAL WISCONSIN

CITY           SKY/WX    TMP DP  RH WIND       PRES   REMARKS
MEDFORD        CLOUDY    32  29  90 NE16      29.82F
WAUSAU         CLOUDY    34  31  88 NE12G21   29.83F
MOSINEE        CLOUDY    32  32 100 NE18G28   29.83F FOG
MARSHFIELD     CLOUDY    34  32  92 NE18G24   29.77F
WISC RAPIDS    LGT RAIN  34  31  88 E13G21    29.79F FOG
STEVENS POINT  CLOUDY    32  32 100 NE13G21   29.81F FOG
WAUPACA        CLOUDY    36  34  92 NE10G20   29.83F FOG
SHAWANO        CLOUDY    35  32  90 NE10      29.87F FOG
CLINTONVILLE   CLOUDY    34  32  93 NE13G18   29.85F FOG
WAUTOMA        LGT RAIN  34  33  96 NE15G25   29.77F FOG
$$

WIZ038-039-048-051-221200-
FOX VALLEY

CITY           SKY/WX    TMP DP  RH WIND       PRES   REMARKS
NWS GREEN BAY  CLOUDY    33  31  92 NE23G33   29.86F FOG
APPLETON       CLOUDY    32  32 100 NE16G25   29.80F FOG
OSHKOSH        RAIN      33  33 100 NE20      29.79F FOG
FOND DU LAC    HVY RAIN  37  34  89 NE12      29.77F FOG
$$

WIZ022-050-052-221200-
EAST CENTRAL WISCONSIN

CITY           SKY/WX    TMP DP  RH WIND       PRES   REMARKS
EPHRAIM        FOG       32  32  99 NE12G17   29.90F VSB 1/2
WASHINGTON ISL FOG       32  32  99 NE13G18   29.94F VSB 1/2
STURGEON BAY   CLOUDY    34  33  96 NE14      29.88F FOG
MANITOWOC      RAIN      36  35  96 NE10G18   29.84F FOG
SHEBOYGAN      LGT RAIN  36  36 100 NE20      29.79F FOG
$$

LMZ563-521-522-541>543-221200-
LAKESHORE

STATION/POSITION TIME  TEMP    WIND        PRES    VSBY  WAVE
                       AIR SEA DIR/SP/G                  HT/PER
                 (UTC) (F)     (DEG/KT/KT) (MB)    (MI)  (FT/S)
SHEBOYGAN LKSHOR 1100   37      30/ 20/ 22 1009.4F
KEWAUNEE LKSHORE 1048   35      40/ 16/ 21 1010.5F
NORTHPORT PIER   1104   33      40/  1/  4 1013.5
SISTER BAY LKSHO 1020   33     110/  7/ 13   N/A
MENOMINEE LKSHOR 1048   33      20/ 24/ 27 1012.7F
$$




USA.gov is the U.S. government's official web portal to all federal, state and local government web resources and services.